Weather History for KOLE - August, 2013

Change the Weather History Date:

Monday, August 5, 2013

  Actual Average (KBFD) Record (KBFD)
Temperature  
Mean Temperature 57 °F 65 °F  
Max Temperature 68 °F 77 °F 86 °F (2001)
Min Temperature 46 °F 53 °F 32 °F (1972)
Degree Days  
Heating Degree Days 8 0  
Month to date heating degree days 0  
Since 1 June heating degree days 209  
Since 1 July heating degree days 64  
Cooling Degree Days 0 2  
Month to date cooling degree days 10  
Year to date cooling degree days 134  
Since 1 June cooling degree days 124  
Growing Degree Days 7 (Base 50)    
Moisture  
Dew Point 48 °F    
Average Humidity 74    
Maximum Humidity 100    
Minimum Humidity 46    
Precipitation  
Precipitation 0.00 in 0.13 in 1.64 in (1983)
Month to date precipitation 0.68  
Year to date precipitation 26.52  
Sea Level Pressure  
Sea Level Pressure 30.11 in    
Wind  
Wind Speed 1 mph (NW)    
Max Wind Speed 6 mph    
Max Gust Speed -    
Visibility 10 miles    
Events      
T = Trace of Precipitation, MM = Missing Value Source: NWS Daily Summary

Daily Weather History Graph

Daily Weather History Graph

Search for Another Location

Airport or City:

Trip Planner

Search our weather history database for the weather conditions in past years. The results will help you decide how hot, cold, wet, or windy it might be!

Date:

Astronomy

Aug. 05, 2013 Rise Set
Actual Time 6:10 AM EDT 8:27 PM EDT
Civil Twilight 5:39 AM EDT 8:58 PM EDT
Nautical Twilight 5:00 AM EDT 9:37 PM EDT
Astronomical Twilight 4:17 AM EDT 10:19 PM EDT
Moon 5:04 AM EDT (8/5) 7:26 PM EDT (8/5)
Length of Visible Light 15h 19m
Length of Day
14h 16m
Waning Crescent, 1% of the Moon is Illuminated
Aug 5
Waning Crescent
Aug 6
New
Aug 14
First Quarter
Aug 20
Full
Aug 28
Last Quarter

Hourly Weather History & Observations

Time (EDT) Temp. Dew Point Humidity Pressure Visibility Wind Dir Wind Speed Gust Speed Precip Events Conditions
12:15 AM 51.8 °F 46.4 °F 82% 30.11 in 10.0 mi Calm Calm - N/A   Overcast
12:35 AM 51.8 °F 46.4 °F 82% 30.11 in 10.0 mi North 3.5 mph - N/A   Overcast
12:55 AM 51.8 °F 46.4 °F 82% 30.11 in 10.0 mi Calm Calm - N/A   Overcast
1:15 AM 51.8 °F 46.4 °F 82% 30.11 in 10.0 mi Calm Calm - N/A   Scattered Clouds
1:35 AM 51.8 °F 46.4 °F 82% 30.11 in 10.0 mi Calm Calm - N/A   Clear
1:55 AM 50.0 °F 46.4 °F 87% 30.11 in 10.0 mi NW 3.5 mph - N/A   Clear
2:15 AM 50.0 °F 46.4 °F 87% 30.11 in 10.0 mi Calm Calm - N/A   Clear
2:35 AM 50.0 °F 46.4 °F 87% 30.11 in 10.0 mi Calm Calm - N/A   Clear
2:55 AM 50.0 °F 46.4 °F 87% 30.11 in 10.0 mi Calm Calm - N/A   Clear
3:15 AM 48.2 °F 46.4 °F 93% 30.11 in 10.0 mi Calm Calm - N/A   Clear
3:35 AM 50.0 °F 46.4 °F 87% 30.11 in 10.0 mi Calm Calm - N/A   Clear
3:55 AM 48.2 °F 46.4 °F 93% 30.11 in 10.0 mi Calm Calm - N/A   Clear
4:15 AM 46.4 °F 46.4 °F 100% 30.11 in 10.0 mi Calm Calm - N/A   Clear
4:35 AM 46.4 °F 46.4 °F 100% 30.11 in 10.0 mi Calm Calm - N/A   Clear
4:55 AM 48.2 °F 46.4 °F 93% 30.12 in 10.0 mi Calm Calm - N/A   Clear
5:15 AM 48.2 °F 44.6 °F 87% 30.12 in 10.0 mi Calm Calm - N/A   Clear
5:35 AM 48.2 °F 44.6 °F 87% 30.13 in 10.0 mi Calm Calm - N/A   Clear
5:55 AM 50.0 °F 44.6 °F 82% 30.13 in 10.0 mi Calm Calm - N/A   Clear
6:15 AM 46.4 °F 44.6 °F 93% 30.13 in 10.0 mi Calm Calm - N/A   Clear
6:35 AM 46.4 °F 44.6 °F 93% 30.14 in 10.0 mi Calm Calm - N/A   Clear
6:55 AM 46.4 °F 46.4 °F 100% 30.15 in 10.0 mi Calm Calm - N/A   Clear
7:15 AM 48.2 °F 46.4 °F 93% 30.15 in 10.0 mi Calm Calm - N/A   Clear
7:35 AM 50.0 °F 46.4 °F 87% 30.15 in 10.0 mi Calm Calm - N/A   Clear
7:55 AM 50.0 °F 46.4 °F 87% 30.15 in 10.0 mi Calm Calm - N/A   Clear
8:15 AM 51.8 °F 50.0 °F 94% 30.16 in 10.0 mi Calm Calm - N/A   Clear
8:35 AM 53.6 °F 50.0 °F 88% 30.16 in 10.0 mi Calm Calm - N/A   Clear
8:55 AM 53.6 °F 50.0 °F 88% 30.16 in 10.0 mi Calm Calm - N/A   Clear
9:15 AM 55.4 °F 50.0 °F 82% 30.15 in 10.0 mi Calm Calm - N/A   Clear
9:35 AM 55.4 °F 50.0 °F 82% 30.15 in 10.0 mi Calm Calm - N/A   Clear
9:55 AM 57.2 °F 50.0 °F 77% 30.16 in 10.0 mi Calm Calm - N/A   Clear
10:15 AM 57.2 °F 46.4 °F 67% 30.15 in 10.0 mi Calm Calm - N/A   Clear
10:35 AM 59.0 °F 42.8 °F 55% 30.16 in 10.0 mi Calm Calm - N/A   Clear
10:55 AM 60.8 °F 46.4 °F 59% 30.15 in 10.0 mi NNW 4.6 mph - N/A   Scattered Clouds
11:15 AM 60.8 °F 44.6 °F 55% 30.15 in 10.0 mi Calm Calm - N/A   Scattered Clouds
11:35 AM 59.0 °F 44.6 °F 59% 30.14 in 10.0 mi Calm Calm - N/A   Scattered Clouds
11:55 AM 62.6 °F 46.4 °F 55% 30.14 in 10.0 mi Calm Calm - N/A   Scattered Clouds
12:15 PM 62.6 °F 46.4 °F 55% 30.14 in 10.0 mi Calm Calm - N/A   Scattered Clouds
12:35 PM 62.6 °F 46.4 °F 55% 30.13 in 10.0 mi Calm Calm - N/A   Mostly Cloudy
12:55 PM 62.6 °F 46.4 °F 55% 30.13 in 10.0 mi Calm Calm - N/A   Mostly Cloudy
1:15 PM 64.4 °F 46.4 °F 52% 30.12 in 10.0 mi Calm Calm - N/A   Overcast
1:35 PM 62.6 °F 46.4 °F 55% 30.11 in 10.0 mi Calm Calm - N/A   Overcast
1:55 PM 64.4 °F 46.4 °F 52% 30.11 in 10.0 mi Calm Calm - N/A   Scattered Clouds
2:15 PM 66.2 °F 46.4 °F 49% 30.11 in 10.0 mi SE 5.8 mph - N/A   Clear
2:35 PM 66.2 °F 44.6 °F 46% 30.10 in 10.0 mi Calm Calm - N/A   Scattered Clouds
2:55 PM 66.2 °F 46.4 °F 49% 30.10 in 10.0 mi SW 3.5 mph - N/A   Clear
3:15 PM 68.0 °F 46.4 °F 46% 30.09 in 10.0 mi Calm Calm - N/A   Scattered Clouds
3:35 PM 68.0 °F 46.4 °F 46% 30.09 in 10.0 mi Calm Calm - N/A   Clear
3:55 PM 66.2 °F 44.6 °F 46% 30.09 in 10.0 mi Calm Calm - N/A   Mostly Cloudy
4:15 PM 66.2 °F 46.4 °F 49% 30.09 in 10.0 mi WNW 3.5 mph - N/A   Mostly Cloudy
4:35 PM 64.4 °F 46.4 °F 52% 30.08 in 10.0 mi Calm Calm - N/A   Scattered Clouds
4:55 PM 64.4 °F 46.4 °F 52% 30.09 in 10.0 mi Calm Calm - N/A   Scattered Clouds
5:15 PM 64.4 °F 44.6 °F 49% 30.09 in 10.0 mi SW 3.5 mph - N/A   Clear
5:35 PM 64.4 °F 46.4 °F 52% 30.09 in 10.0 mi Calm Calm - N/A   Scattered Clouds
5:55 PM 64.4 °F 44.6 °F 49% 30.08 in 10.0 mi Calm Calm - N/A   Clear
6:15 PM 64.4 °F 46.4 °F 52% 30.08 in 10.0 mi Calm Calm - N/A   Clear
6:35 PM 62.6 °F 51.8 °F 68% 30.08 in 10.0 mi Calm Calm - N/A   Clear
6:55 PM 62.6 °F 51.8 °F 68% 30.08 in 10.0 mi Calm Calm - N/A   Clear
7:15 PM 62.6 °F 48.2 °F 59% 30.08 in 10.0 mi Calm Calm - N/A   Scattered Clouds
7:35 PM 60.8 °F 53.6 °F 77% 30.08 in 10.0 mi Calm Calm - N/A   Mostly Cloudy
7:55 PM 60.8 °F 53.6 °F 77% 30.08 in 10.0 mi Calm Calm - N/A   Mostly Cloudy
8:15 PM 59.0 °F 53.6 °F 82% 30.08 in 10.0 mi WNW 3.5 mph - N/A   Scattered Clouds
8:35 PM 59.0 °F 53.6 °F 82% 30.08 in 10.0 mi Calm Calm - N/A   Mostly Cloudy
8:55 PM 57.2 °F 53.6 °F 88% 30.09 in 10.0 mi NW 3.5 mph - N/A   Mostly Cloudy
9:15 PM 57.2 °F 51.8 °F 82% 30.09 in 10.0 mi NW 3.5 mph - N/A   Scattered Clouds
9:35 PM 57.2 °F 51.8 °F 82% 30.09 in 10.0 mi Calm Calm - N/A   Scattered Clouds
9:55 PM 55.4 °F 51.8 °F 88% 30.08 in 10.0 mi North 3.5 mph - N/A   Clear
10:15 PM 55.4 °F 51.8 °F 88% 30.08 in 10.0 mi Calm Calm - N/A   Clear
10:35 PM 55.4 °F 50.0 °F 82% 30.08 in 10.0 mi Calm Calm - N/A   Clear
10:55 PM 55.4 °F 50.0 °F 82% 30.07 in 10.0 mi Calm Calm - N/A   Clear
11:15 PM 55.4 °F 50.0 °F 82% 30.07 in 10.0 mi Calm Calm - N/A   Clear
11:35 PM 55.4 °F 50.0 °F 82% 30.07 in 10.0 mi Calm Calm - N/A   Clear
11:55 PM 55.4 °F 50.0 °F 82% 30.07 in 10.0 mi Calm Calm - N/A   Clear